• en Belgique
  • Liste des pays
  • À 7 jours
  • Température de l'eau
  • Carte satellitaire
  • Carte météo
  • Widgets météo
  • user-avatar
    Se connecter

    Météo par heure à Hasselt

    Ce jour, 21 Février, Mercredi

    Heure Température Précipitation Vent Pression Humidité
    00:00 -2°C° 0 mm 3 m/s 763 mmHg 81%
    01:00 -2°C° 0 mm 2 m/s 764 mmHg 81%
    02:00 -2°C° 0 mm 2 m/s 764 mmHg 82%
    03:00 -2°C° 0 mm 2 m/s 764 mmHg 83%
    04:00 -3°C° 0 mm 2 m/s 764 mmHg 83%
    05:00 -3°C° 0 mm 2 m/s 764 mmHg 83%
    06:00 -4°C° 0 mm 3 m/s 765 mmHg 86%
    07:00 -2°C° 0 mm 3 m/s 765 mmHg 79%
    08:00 -1°C° 0 mm 3 m/s 765 mmHg 73%
    09:00 0°C° 0 mm 3 m/s 765 mmHg 67%
    10:00 0°C° 0 mm 4 m/s 765 mmHg 62%
    11:00 +3°C° 0 mm 4 m/s 764 mmHg 57%
    12:00 +4°C° 0 mm 4 m/s 764 mmHg 53%
    13:00 +4°C° 0 mm 4 m/s 764 mmHg 53%
    14:00 +4°C° 0 mm 4 m/s 764 mmHg 53%
    15:00 +4°C° 0 mm 4 m/s 763 mmHg 53%
    16:00 +1°C° 0 mm 4 m/s 763 mmHg 58%
    17:00 +1°C° 0 mm 3 m/s 763 mmHg 64%
    18:00 0°C° 0 mm 3 m/s 764 mmHg 70%
    19:00 -1°C° 0 mm 3 m/s 764 mmHg 72%
    20:00 -1°C° 0 mm 3 m/s 764 mmHg 73%
    21:00 -2°C° 0 mm 3 m/s 764 mmHg 75%
    22:00 -2°C° 0 mm 3 m/s 764 mmHg 75%
    23:00 -2°C° 0 mm 3 m/s 764 mmHg 76%

    Demain, 22 Février, Jeudi

    Heure Température Précipitation Vent Pression Humidité
    00:00 -2°C° 0 mm 3 m/s 764 mmHg 77%
    01:00 -2°C° 0 mm 3 m/s 764 mmHg 77%
    02:00 -2°C° 0 mm 3 m/s 764 mmHg 77%
    03:00 -2°C° 0 mm 3 m/s 764 mmHg 76%
    04:00 -2°C° 0 mm 3 m/s 764 mmHg 76%
    05:00 -2°C° 0 mm 3 m/s 764 mmHg 75%
    06:00 -4°C° 0 mm 4 m/s 764 mmHg 74%
    07:00 -3°C° 0 mm 4 m/s 764 mmHg 67%
    08:00 -2°C° 0 mm 5 m/s 764 mmHg 61%
    09:00 -1°C° 0 mm 5 m/s 764 mmHg 54%
    10:00 0°C° 0 mm 5 m/s 764 mmHg 50%
    11:00 +1°C° 0 mm 6 m/s 764 mmHg 45%
    12:00 +2°C° 0 mm 6 m/s 763 mmHg 40%
    13:00 +2°C° 0 mm 6 m/s 763 mmHg 41%
    14:00 +3°C° 0 mm 6 m/s 763 mmHg 42%
    15:00 +3°C° 0 mm 6 m/s 763 mmHg 43%
    16:00 +1°C° 0 mm 5 m/s 763 mmHg 49%
    17:00 0°C° 0 mm 4 m/s 763 mmHg 54%
    18:00 -1°C° 0 mm 4 m/s 763 mmHg 60%
    19:00 -2°C° 0 mm 4 m/s 763 mmHg 62%
    20:00 -2°C° 0 mm 4 m/s 763 mmHg 65%
    21:00 -2°C° 0 mm 4 m/s 764 mmHg 67%
    22:00 -3°C° 0 mm 4 m/s 764 mmHg 69%
    23:00 -2°C° 0 mm 3 m/s 764 mmHg 71%

    Après-demain, 23 Février, Vendredi

    Heure Température Précipitation Vent Pression Humidité
    00:00 -2°C° 0 mm 3 m/s 763 mmHg 72%
    01:00 -2°C° 0 mm 3 m/s 763 mmHg 73%
    02:00 -4°C° 0 mm 3 m/s 763 mmHg 73%
    03:00 -4°C° 0 mm 3 m/s 763 mmHg 74%
    04:00 -4°C° 0 mm 3 m/s 763 mmHg 74%
    05:00 -4°C° 0 mm 4 m/s 763 mmHg 73%
    06:00 -4°C° 0 mm 4 m/s 763 mmHg 73%
    07:00 -3°C° 0 mm 4 m/s 763 mmHg 65%
    08:00 -2°C° 0 mm 5 m/s 763 mmHg 57%
    09:00 -2°C° 0 mm 6 m/s 763 mmHg 49%
    10:00 -1°C° 0 mm 6 m/s 763 mmHg 45%
    11:00 -1°C° 0 mm 6 m/s 763 mmHg 40%
    12:00 +1°C° 0 mm 6 m/s 762 mmHg 35%
    13:00 +1°C° 0 mm 6 m/s 762 mmHg 35%
    14:00 +2°C° 0 mm 6 m/s 762 mmHg 34%
    15:00 +2°C° 0 mm 6 m/s 761 mmHg 34%
    16:00 +1°C° 0 mm 5 m/s 762 mmHg 36%
    17:00 -1°C° 0 mm 5 m/s 762 mmHg 39%
    18:00 -2°C° 0 mm 4 m/s 762 mmHg 41%
    19:00 -2°C° 0 mm 4 m/s 762 mmHg 41%
    20:00 -3°C° 0 mm 4 m/s 762 mmHg 41%
    21:00 -3°C° 0 mm 4 m/s 762 mmHg 41%
    22:00 -3°C° 0 mm 4 m/s 762 mmHg 42%
    23:00 -4°C° 0 mm 4 m/s 762 mmHg 44%

    24 Février, Samedi

    Heure Température Précipitation Vent Pression Humidité
    00:00 -4°C° 0 mm 4 m/s 762 mmHg 45%
    01:00 -4°C° 0 mm 4 m/s 762 mmHg 45%
    02:00 -4°C° 0 mm 4 m/s 762 mmHg 46%
    03:00 -4°C° 0 mm 4 m/s 762 mmHg 46%
    04:00 -5°C° 0 mm 5 m/s 762 mmHg 45%
    05:00 -5°C° 0 mm 5 m/s 762 mmHg 43%
    06:00 -5°C° 0 mm 5 m/s 762 mmHg 42%
    07:00 -3°C° 0 mm 6 m/s 762 mmHg 38%
    08:00 -2°C° 0 mm 6 m/s 762 mmHg 34%
    09:00 -1°C° 0 mm 7 m/s 762 mmHg 30%
    10:00 0°C° 0 mm 7 m/s 762 mmHg 30%
    11:00 +2°C° 0 mm 7 m/s 762 mmHg 29%
    12:00 +3°C° 0 mm 7 m/s 762 mmHg 29%
    13:00 +4°C° 0 mm 7 m/s 762 mmHg 32%
    14:00 +4°C° 0 mm 7 m/s 761 mmHg 35%
    15:00 +4°C° 0 mm 7 m/s 761 mmHg 38%
    16:00 +2°C° 0 mm 7 m/s 762 mmHg 43%
    17:00 0°C° 0 mm 7 m/s 762 mmHg 48%
    18:00 -1°C° 0 mm 6 m/s 762 mmHg 54%
    19:00 -2°C° 0 mm 6 m/s 763 mmHg 51%
    20:00 -3°C° 0 mm 6 m/s 763 mmHg 49%
    21:00 -3°C° 0 mm 6 m/s 764 mmHg 47%
    22:00 -4°C° 0 mm 6 m/s 764 mmHg 45%
    23:00 -4°C° 0 mm 6 m/s 764 mmHg 43%

    25 Février, Dimanche

    Heure Température Précipitation Vent Pression Humidité
    00:00 -5°C° 0 mm 6 m/s 764 mmHg 41%
    01:00 -5°C° 0 mm 6 m/s 764 mmHg 39%
    02:00 -5°C° 0 mm 6 m/s 765 mmHg 37%
    03:00 -5°C° 0 mm 6 m/s 765 mmHg 34%
    04:00 -6°C° 0 mm 6 m/s 765 mmHg 34%
    05:00 -6°C° 0 mm 6 m/s 765 mmHg 34%
    06:00 -6°C° 0 mm 6 m/s 765 mmHg 34%
    07:00 -6°C° 0 mm 6 m/s 766 mmHg 32%
    08:00 -6°C° 0 mm 7 m/s 766 mmHg 31%
    09:00 -4°C° 0 mm 7 m/s 766 mmHg 29%
    10:00 -4°C° 0 mm 7 m/s 766 mmHg 27%
    11:00 -3°C° 0 mm 7 m/s 766 mmHg 24%
    12:00 -2°C° 0 mm 7 m/s 766 mmHg 22%
    13:00 -2°C° 0 mm 7 m/s 766 mmHg 22%
    14:00 -2°C° 0 mm 7 m/s 766 mmHg 22%
    15:00 -2°C° 0 mm 7 m/s 766 mmHg 23%
    16:00 -3°C° 0 mm 6 m/s 766 mmHg 25%
    17:00 -4°C° 0 mm 6 m/s 767 mmHg 27%
    18:00 -5°C° 0 mm 5 m/s 767 mmHg 29%
    19:00 -5°C° 0 mm 5 m/s 768 mmHg 31%
    20:00 -6°C° 0 mm 5 m/s 768 mmHg 33%
    21:00 -6°C° 0 mm 5 m/s 768 mmHg 34%
    22:00 -6°C° 0 mm 5 m/s 768 mmHg 37%
    23:00 -7°C° 0 mm 4 m/s 769 mmHg 39%

    26 Février, Lundi

    Heure Température Précipitation Vent Pression Humidité
    00:00 -7°C° 0 mm 4 m/s 769 mmHg 41%
    01:00 -7°C° 0 mm 4 m/s 769 mmHg 42%
    02:00 -7°C° 0 mm 4 m/s 769 mmHg 43%
    03:00 -7°C° 0 mm 4 m/s 769 mmHg 44%
    04:00 -7°C° 0 mm 4 m/s 769 mmHg 44%
    05:00 -7°C° 0 mm 4 m/s 769 mmHg 44%
    06:00 -8°C° 0 mm 4 m/s 769 mmHg 43%
    07:00 -7°C° 0 mm 5 m/s 769 mmHg 41%
    08:00 -7°C° 0 mm 5 m/s 769 mmHg 38%
    09:00 -6°C° 0 mm 6 m/s 769 mmHg 35%
    10:00 -5°C° 0 mm 6 m/s 768 mmHg 33%
    11:00 -4°C° 0 mm 6 m/s 768 mmHg 31%
    12:00 -4°C° 0 mm 6 m/s 768 mmHg 29%
    13:00 -3°C° 0 mm 6 m/s 767 mmHg 30%
    14:00 -3°C° 0 mm 6 m/s 767 mmHg 31%
    15:00 -3°C° 0 mm 6 m/s 766 mmHg 32%
    16:00 -4°C° 0 mm 5 m/s 766 mmHg 36%
    17:00 -4°C° 0 mm 4 m/s 766 mmHg 41%
    18:00 -5°C° 0 mm 4 m/s 766 mmHg 45%
    19:00 -5°C° 0 mm 3 m/s 767 mmHg 46%
    20:00 -6°C° 0 mm 3 m/s 767 mmHg 48%
    21:00 -6°C° 0 mm 3 m/s 767 mmHg 49%
    22:00 -6°C° 0 mm 3 m/s 767 mmHg 50%
    23:00 -6°C° 0 mm 3 m/s 767 mmHg 51%
    Voir plus